Weather History for Decimomannu, Italy

Change the Weather History Date:

Monday, November 18, 2013

  Actual Average Record
Temperature  
Mean Temperature 62 °F -  
Max Temperature 72 °F 61 °F 77 °F (2001)
Min Temperature 53 °F 44 °F 37 °F (1998)
Degree Days  
Heating Degree Days 2    
Growing Degree Days 12 (Base 50)    
Moisture  
Dew Point 59 °F    
Average Humidity 83    
Maximum Humidity 88    
Minimum Humidity 71    
Precipitation  
Precipitation 0.12 in 0.08 in - ()
Sea Level Pressure  
Sea Level Pressure 29.67 in    
Wind  
Wind Speed 17 mph ()    
Max Wind Speed 38 mph    
Max Gust Speed 59 mph    
Visibility 6.0 miles    
Events Rain , Thunderstorm    
Averages and records for this station are not official NWS values.
T = Trace of Precipitation, MM = Missing Value Source: Averaged Metar Reports

Daily Weather History Graph

Daily Weather History Graph

Search for Another Location

Airport:

Trip Planner

Search our weather history database for the weather conditions in past years. The results will help you decide how hot, cold, wet, or windy it might be!

Date:

Astronomy

Nov. 18, 2013 Rise Set
Actual Time 7:11 AM CET 5:07 PM CET
Civil Twilight 6:42 AM CET 5:36 PM CET
Nautical Twilight 6:09 AM CET 6:08 PM CET
Astronomical Twilight 5:37 AM CET 6:40 PM CET
Moon 5:56 PM CET (11/18) 7:45 AM CET (11/18)
Length of Visible Light 10h 53m
Length of Day
9h 56m
Full, 99% of the Moon is Illuminated
Nov 18
Full
Nov 25
Last Quarter
Dec 3
New
Dec 9
First Quarter
Dec 17
Full

Hourly Weather History & Observations

Time (CET) Temp. Dew Point Humidity Pressure Visibility Wind Dir Wind Speed Gust Speed Precip Events Conditions
12:55 AM 64.4 °F 59.0 °F 83% 29.92 in 6.2 mi ESE 12.7 mph - N/A   Scattered Clouds
1:00 AM 65 °F 60 °F 78% 29.92 in 7 mi ESE 12.7 mph - -   Scattered Clouds
1:55 AM 64.4 °F 59.0 °F 83% 29.89 in 6.2 mi East 11.5 mph - N/A Thunderstorm Thunderstorm
2:55 AM 64.4 °F 60.8 °F 88% 29.86 in 6.2 mi ESE 18.4 mph - N/A Thunderstorm Thunderstorm
3:55 AM 66.2 °F 60.8 °F 83% 29.80 in 6.2 mi ESE 17.3 mph 28.8 mph N/A Thunderstorm Thunderstorm
4:00 AM 66 °F 61 °F 78% 29.81 in 6 mi ESE 17.3 mph - - Thunderstorm Thunderstorm
4:55 AM 66.2 °F 60.8 °F 83% 29.77 in 6.2 mi ESE 18.4 mph 32.2 mph N/A   Scattered Clouds
5:55 AM 66.2 °F 60.8 °F 83% 29.74 in 6.2 mi ESE 20.7 mph 34.5 mph N/A Thunderstorm Thunderstorm
6:55 AM 66.2 °F 60.8 °F 83% 29.71 in 5.0 mi SE 21.9 mph - N/A Thunderstorm Thunderstorm
7:00 AM 66 °F 62 °F 81% 29.73 in 5 mi SE 21.9 mph - - Thunderstorm Thunderstorm
7:55 AM 66.2 °F 60.8 °F 83% 29.71 in 5.0 mi SE 25.3 mph 41.4 mph N/A Thunderstorm Thunderstorm
8:55 AM 66.2 °F 60.8 °F 83% 29.68 in 5.0 mi SE 28.8 mph - N/A Thunderstorm Thunderstorm
9:55 AM 68.0 °F 60.8 °F 78% 29.68 in 6.2 mi SE 29.9 mph 42.6 mph N/A Thunderstorm Thunderstorm
10:00 AM 68 °F 61 °F 71% 29.68 in 7 mi SE 29.9 mph - - Thunderstorm Thunderstorm
10:55 AM 69.8 °F 64.4 °F 83% 29.62 in 6.2 mi SE 31.1 mph 44.9 mph N/A Thunderstorm Thunderstorm
11:55 AM 69.8 °F 66.2 °F 88% 29.56 in 6.2 mi SE 33.4 mph 55.2 mph N/A Thunderstorm Thunderstorm
12:55 PM 69.8 °F 66.2 °F 88% 29.50 in 5.0 mi SE 38.0 mph 58.7 mph N/A Thunderstorm Thunderstorm
1:00 PM 70 °F 66 °F 83% 29.53 in 5 mi SE 38.0 mph - - Thunderstorm Thunderstorm
1:55 PM 69.8 °F 66.2 °F 88% 29.50 in 6.2 mi SE 31.1 mph 58.7 mph N/A Thunderstorm Thunderstorm
2:55 PM 68.0 °F 64.4 °F 88% 29.44 in 4.3 mi SE 33.4 mph - N/A Rain , Thunderstorm Light Thunderstorms and Rain
3:26 PM 68.0 °F 64.4 °F 88% 29.50 in 1.6 mi South 25.3 mph 46.0 mph N/A Rain , Thunderstorm Thunderstorms and Rain
6:55 PM 57.2 °F 51.8 °F 82% 29.59 in 6.2 mi SSW 6.9 mph - N/A   Partly Cloudy
7:00 PM 58 °F 53 °F 76% 29.60 in 9 mi SSW 6.9 mph - - Thunderstorm Light Thunderstorm
7:55 PM 57.2 °F 53.6 °F 88% 29.59 in 6.2 mi SSW 4.6 mph - N/A   Scattered Clouds
8:55 PM 55.4 °F 51.8 °F 88% 29.59 in 6.2 mi SSE 5.8 mph - N/A   Scattered Clouds
9:55 PM 55.4 °F 51.8 °F 88% 29.59 in 6.2 mi South 2.3 mph - N/A   Scattered Clouds
10:00 PM 55 °F 51 °F 83% 29.62 in 9 mi South 2.3 mph - -   Partly Cloudy
10:55 PM 53.6 °F 48.2 °F 82% 29.62 in 6.2 mi ESE 5.8 mph - N/A   Scattered Clouds
11:55 PM 53.6 °F 50.0 °F 88% 29.59 in 6.2 mi ESE 5.8 mph - N/A Thunderstorm Thunderstorm